Change the Weather History Date:

Friday, March 21, 2014

  Actual Average (KHGR) Record (KHGR)
Temperature  
Mean Temperature 42 °F -  
Max Temperature 51 °F 49 °F 73 °F (2011)
Min Temperature 35 °F 32 °F 23 °F (2006)
Degree Days  
Heating Degree Days 22    
Moisture  
Dew Point 27 °F    
Average Humidity 57    
Maximum Humidity 76    
Minimum Humidity 41    
Precipitation  
Precipitation 0.00 in - - ()
Sea Level Pressure  
Sea Level Pressure 30.03 in    
Wind  
Wind Speed 3 mph (West)    
Max Wind Speed 12 mph    
Max Gust Speed 18 mph    
Visibility 10 miles    
Events      
Averages and records for this station are not official NWS values.
T = Trace of Precipitation, MM = Missing Value Source: NWS Daily Summary

Daily Weather History Graph

Daily Weather History Graph

Search for Another Location

Airport or City:

Trip Planner

Search our weather history database for the weather conditions in past years. The results will help you decide how hot, cold, wet, or windy it might be!

Date:

Astronomy

Mar. 21, 2014 Rise Set
Actual Time 7:11 AM EDT 7:22 PM EDT
Civil Twilight 6:44 AM EDT 7:49 PM EDT
Nautical Twilight 6:13 AM EDT 8:21 PM EDT
Astronomical Twilight 5:41 AM EDT 8:53 PM EDT
Moon No Moon Rise 10:02 AM EDT (3/21)
Length of Visible Light 13h 05m
Length of Day
12h 11m
Waning Gibbous, 75% of the Moon is Illuminated
Mar 21
Waning Gibbous
Mar 23
Last Quarter
Mar 30
New
Apr 7
First Quarter
Apr 15
Full

Hourly Weather History & Observations

Time (EDT) Temp. Windchill Dew Point Humidity Pressure Visibility Wind Dir Wind Speed Gust Speed Precip Events Conditions
12:53 AM 39.0 °F - 23.0 °F 53% 29.98 in 10.0 mi Calm Calm - N/A   Clear
2:53 AM 37.9 °F - 24.1 °F 57% 29.99 in 10.0 mi Calm Calm - N/A   Clear
4:53 AM 37.9 °F - 24.1 °F 57% 30.00 in 10.0 mi Calm Calm - N/A   Clear
5:53 AM 36.0 °F - 24.1 °F 62% 30.01 in 10.0 mi Calm Calm - N/A   Partly Cloudy
6:53 AM 35.1 °F - 24.1 °F 64% 30.03 in 10.0 mi Calm Calm - N/A   Clear
7:53 AM 35.1 °F - 23.0 °F 61% 30.05 in 10.0 mi Calm Calm - N/A   Clear
8:53 AM 37.9 °F 32.1 °F 24.1 °F 57% 30.05 in 10.0 mi WNW 8.1 mph - N/A   Clear
9:53 AM 39.9 °F 35.8 °F 25.0 °F 55% 30.06 in 10.0 mi Variable 5.8 mph - N/A   Clear
11:53 AM 46.0 °F 43.1 °F 24.1 °F 42% 30.05 in 10.0 mi North 5.8 mph - N/A   Clear
12:53 PM 46.9 °F - 24.1 °F 41% 30.06 in 10.0 mi WNW 10.4 mph 18.4 mph N/A   Mostly Cloudy
1:53 PM 46.0 °F 43.1 °F 28.0 °F 50% 30.06 in 10.0 mi Variable 5.8 mph - N/A   Overcast
2:53 PM 46.0 °F 41.9 °F 32.0 °F 58% 30.05 in 10.0 mi West 8.1 mph - N/A   Overcast
3:53 PM 48.9 °F - 32.0 °F 52% 30.02 in 10.0 mi West 11.5 mph - N/A   Clear
4:53 PM 48.9 °F - 32.0 °F 52% 30.02 in 10.0 mi West 8.1 mph - N/A   Clear
5:53 PM 50.0 °F - 30.0 °F 46% 30.02 in 10.0 mi West 9.2 mph - N/A   Clear
6:53 PM 48.9 °F - 30.0 °F 48% 30.03 in 10.0 mi Variable 3.5 mph - N/A   Clear
7:53 PM 44.1 °F - 30.9 °F 60% 30.03 in 10.0 mi Calm Calm - N/A   Clear
8:53 PM 39.0 °F - 30.0 °F 70% 30.03 in 10.0 mi Calm Calm - N/A   Clear
9:53 PM 39.0 °F - 30.0 °F 70% 30.03 in 10.0 mi Calm Calm - N/A   Clear
10:53 PM 39.0 °F 35.7 °F 30.9 °F 73% 30.03 in 10.0 mi SW 4.6 mph - N/A   Clear
11:53 PM 37.0 °F - 30.0 °F 76% 30.01 in 10.0 mi Calm Calm - N/A   Clear